Wetbulb
68.06 68.03 67.51 67.21 66.73 67.24 68.05 68.35 68.25 66.82 67.61 66.51 67.45 67.45 66.26 65.91 66.19 66.63 67.43 64.29 66.07 68.08 68.21 67.81 66.89 65.81 64.82 63.80 63.26 62.98 62.67 62.36 62.06 62.00 61.59 61.46 61.61 61.89 62.08 62.39 62.74 63.38 64.23
66.78 66.22 65.77 65.86 65.98 65.92 66.53 67.18 66.79 65.85 66.46 65.54 63.72 65.81 65.81 65.31 65.24 64.48 63.46 61.65 61.92 64.39 65.81 65.87 65.10 64.02 62.83 61.80 60.70 60.20 60.25 59.90 59.75 59.67 59.11 58.96 59.13 59.21 59.13 59.60 60.26 61.04 61.69
64.94 64.49 64.49 64.29 64.06 62.42 62.59 63.07 63.40 63.53 62.72 60.86 62.51 63.40 63.68 62.99 62.11 60.67 60.38 60.00 59.05 59.58 60.86 61.61 61.17 60.95 60.33 59.93 58.86 58.34 57.96 57.56 57.41 57.24 56.88 56.73 56.84 57.22 57.54 58.00 58.47 58.92 59.22
62.40 62.81 62.66 61.67 60.61 59.09 60.21 60.11 60.50 60.15 59.66 59.93 60.91 61.63 60.44 59.54 58.47 57.90 57.41 57.77 56.47 56.29 57.16 57.80 57.67 57.77 58.15 57.92 57.65 57.33 56.61 55.99 55.89 55.91 55.54 55.54 55.56 55.89 56.06 56.19 56.44 56.67 57.53
58.60 60.80 60.33 58.71 58.35 58.02 58.51 58.42 57.26 57.48 55.71 57.49 59.04 58.24 57.06 57.28 56.78 55.92 54.63 54.49 54.13 54.99 54.34 54.06 53.83 53.80 54.35 55.04 55.86 56.24 56.07 55.66 55.22 55.06 54.92 54.52 54.33 54.44 54.73 54.79 55.02 55.33 55.58
56.90 57.63 56.87 56.57 55.73 57.13 56.71 56.68 56.48 55.01 55.22 58.33 55.57 52.92 52.52 53.12 54.95 53.61 51.69 51.41 51.03 50.76 52.31 52.36 52.79 51.09 51.49 52.30 53.56 54.64 55.14 54.81 54.50 53.69 53.43 53.34 53.08 53.06 53.54 53.36 53.47 53.47 53.58
55.15 55.68 55.10 55.63 54.85 55.60 55.51 55.12 54.66 53.94 54.78 56.63 54.18 50.81 49.25 48.98 47.98 47.52 48.54 47.63 46.13 46.16 47.92 48.11 48.37 48.50 48.45 48.49 50.06 52.22 53.51 53.37 53.50 52.31 51.95 52.07 52.05 51.70 51.34 51.42 51.38 51.60 51.71
52.28 52.46 52.97 52.44 52.83 52.88 53.77 54.35 54.36 52.63 53.26 56.17 55.13 52.30 46.98 46.91 45.28 45.06 44.86 43.63 43.45 44.14 43.95 45.48 46.00 45.74 46.21 47.01 47.79 48.18 49.79 51.50 50.84 51.29 50.88 50.16 49.93 49.38 49.51 49.64 49.93 50.04 50.32
50.68 51.07 50.94 51.64 52.10 53.02 53.35 53.00 53.25 53.07 51.70 53.91 53.64 54.37 48.68 47.09 44.60 43.53 41.76 41.38 40.89 40.95 41.29 42.09 43.82 44.51 44.75 45.17 45.08 44.25 44.36 45.70 47.78 49.37 49.35 48.26 48.09 48.08 48.24 48.41 48.58 48.62 48.76
50.38 51.05 51.03 50.89 51.48 51.10 51.77 51.41 51.12 52.14 52.26 51.51 51.49 50.91 51.38 51.46 48.22 40.42 40.24 39.49 40.11 39.54 39.62 39.95 40.18 42.33 42.87 44.06 43.32 41.70 41.71 42.89 45.15 46.51 47.13 46.79 46.57 46.94 46.76 46.65 46.62 46.84 47.43
49.63 50.30 50.89 51.19 51.73 51.58 51.52 51.13 50.90 50.51 51.51 50.99 51.17 50.54 49.44 48.98 49.07 45.31 38.29 36.17 38.22 39.44 38.90 38.86 39.42 41.75 41.91 42.50 42.51 40.57 40.48 41.19 42.45 43.21 44.02 44.70 44.99 45.22 45.46 45.49 45.76 46.04 46.68
50.90 50.70 49.97 50.57 50.80 50.55 49.15 49.76 49.89 49.03 49.86 50.17 50.10 50.04 49.91 48.82 46.72 45.49 41.83 38.35 37.95 36.80 37.63 37.76 38.63 40.45 41.26 41.88 40.89 39.53 39.14 39.55 40.38 41.31 41.95 42.43 43.00 43.55 43.62 44.12 44.66 45.37 46.00
50.43 50.39 50.40 50.16 50.04 49.78 48.37 48.72 48.29 47.50 48.33 48.55 49.24 49.29 49.34 49.89 48.86 47.39 44.86 40.27 38.00 35.89 35.70 36.71 37.12 38.49 39.02 40.36 40.52 39.38 38.42 38.18 38.45 39.00 39.42 40.18 40.49 40.96 41.45 42.19 42.84 43.55 44.19
51.90 51.56 50.90 50.21 49.80 49.00 47.86 47.41 47.19 46.77 47.09 46.98 46.97 47.04 47.85 47.67 47.39 47.62 46.00 42.43 38.14 37.35 36.67 35.15 36.18 36.70 38.36 38.75 38.93 38.44 37.41 36.73 36.75 36.88 37.48 38.14 38.41 38.86 39.32 40.03 40.58 41.32 41.74
51.17 51.20 50.74 50.23 49.58 48.18 47.41 46.63 46.82 45.37 45.49 45.87 45.98 45.45 45.26 44.92 45.28 46.10 46.88 46.32 45.54 38.06 35.86 34.98 33.70 36.49 38.09 38.47 37.96 38.09 37.28 36.52 35.81 35.69 35.63 36.32 37.06 37.38 37.86 38.59 39.12 39.57 39.39
50.86 49.76 50.00 49.52 48.79 47.89 46.79 45.83 44.76 43.78 42.78 41.79 43.67 42.63 42.65 41.45 42.21 43.65 44.78 45.96 45.16 44.76 37.93 36.84 34.83 35.61 37.35 36.73 37.44 38.04 36.60 36.04 35.22 34.95 34.86 34.99 35.59 35.70 36.30 36.76 37.53 38.01 37.98
49.87 48.77 48.85 48.83 47.92 47.17 46.51 45.54 44.33 42.85 41.80 40.96 39.15 39.01 38.83 39.39 41.23 41.76 42.94 43.37 42.93 43.54 39.06 33.72 34.61 35.91 36.33 36.27 36.10 37.58 36.97 36.55 35.42 34.58 34.48 34.02 34.15 33.79 34.55 35.26 35.54 36.40 36.25
49.50 49.20 48.61 47.78 45.81 44.89 45.31 43.02 40.71 40.12 39.75 39.35 39.39 38.08 36.73 38.07 39.00 39.55 40.41 40.14 41.23 40.40 38.33 31.12 32.12 32.87 34.55 35.82 35.50 34.55 35.01 35.66 34.77 34.16 33.57 33.62 33.38 33.14 33.65 34.06 34.09 34.40 35.30
48.36 47.77 47.11 46.63 45.41 45.00 43.95 41.43 41.38 37.53 37.99 36.98 37.07 38.16 37.94 38.90 38.62 39.06 39.11 38.40 37.91 35.05 34.83 31.75 30.30 32.47 33.51 33.37 33.27 33.07 33.64 33.65 34.46 33.43 32.20 32.51 32.59 32.02 32.79 33.30 33.63 33.44 34.17
47.01 46.69 46.50 46.15 45.56 43.26 40.98 38.57 36.15 34.60 34.70 34.93 35.11 36.19 36.39 36.43 36.76 36.95 36.44 35.28 32.79 33.48 32.28 30.46 30.22 29.84 31.17 31.46 31.87 29.64 29.49 32.38 31.06 31.14 31.13 31.08 30.69 31.15 31.33 31.92 33.26 32.84 32.27
45.52 45.59 44.99 44.07 43.21 40.93 38.17 36.63 34.84 34.07 34.99 32.77 34.51 34.77 35.41 33.94 31.88 31.94 34.21 33.51 32.72 30.78 30.87 30.74 28.39 28.33 29.47 28.72 28.94 30.52 29.29 29.06 28.86 30.30 29.30 30.25 30.80 30.68 31.51 31.35 31.85 31.80 31.20
42.03 42.42 41.96 41.24 40.33 37.97 35.35 34.79 34.72 33.09 34.04 33.74 33.56 33.34 33.48 32.48 31.54 30.70 30.10 28.98 30.90 32.24 30.32 29.40 29.24 28.34 29.25 30.41 31.27 29.76 28.78 27.55 24.70 29.76 28.36 26.69 29.83 28.09 29.67 30.90 29.73 30.56 30.75
39.32 37.91 37.23 37.37 35.86 36.10 35.45 35.11 33.61 34.46 34.14 33.38 32.96 32.53 31.22 30.28 30.05 29.44 27.97 27.45 27.45 27.41 27.95 31.31 27.86 29.49 28.33 29.81 30.48 29.04 28.19 28.20 27.10 26.45 27.62 23.92 27.89 25.86 27.95 28.46 28.15 28.68 29.12
33.32 32.96 34.05 34.41 33.87 34.41 35.23 33.88 32.84 34.06 33.19 32.08 31.57 30.84 29.81 28.45 27.65 27.11 26.29 25.27 25.29 26.02 25.71 25.83 29.56 28.19 29.10 29.52 29.64 30.59 29.33 26.25 26.16 25.39 27.87 21.89 25.47 23.07 25.83 26.65 26.17 26.71 27.57
33.32 33.32 33.14 32.96 32.60 32.60 33.71 32.12 32.78 32.36 30.64 29.39 28.75 28.23 27.53 26.97 26.04 25.42 25.27 24.42 25.29 26.00 26.91 27.17 25.44 25.52 26.12 26.80 28.01 27.25 24.30 24.33 22.20 22.42 24.65 24.16 22.98 22.59 23.34 24.00 25.57 24.17 24.90
32.42 33.49 32.42 32.96 33.47 32.60 32.97 31.98 32.04 31.70 28.97 28.51 28.09 27.37 24.17 25.46 25.43 24.92 25.07 24.26 21.94 21.59 21.62 22.67 22.79 23.78 25.84 26.17 24.82 28.45 26.41 23.00 22.36 21.17 23.15 23.84 22.45 23.37 20.45 24.59 24.47 25.70 26.18
MSLP
1019.00 1019.26 1019.59 1019.86 1019.96 1019.98 1019.92 1019.80 1019.68 1019.78 1019.91 1020.18 1020.29 1020.33 1020.84 1021.24 1021.26 1021.28 1021.46 1021.38 1021.21 1021.48 1021.88 1022.15 1022.60 1023.14 1023.48 1023.75 1023.98 1023.97 1024.12 1024.19 1024.19 1024.30 1024.28 1024.38 1024.33 1024.24 1024.22 1024.12 1024.01 1023.86 1023.72
1019.18 1019.50 1019.71 1019.91 1020.12 1020.17 1020.36 1020.11 1019.94 1019.89 1020.10 1020.34 1020.70 1020.75 1021.11 1021.52 1021.73 1021.80 1022.14 1022.44 1022.34 1022.29 1022.54 1022.96 1023.37 1023.67 1024.01 1024.31 1024.70 1024.66 1024.65 1024.75 1024.74 1024.68 1024.74 1024.81 1024.76 1024.75 1024.67 1024.54 1024.46 1024.28 1024.14
1019.54 1019.71 1019.88 1020.06 1020.32 1020.53 1020.54 1020.65 1020.58 1020.53 1020.53 1020.97 1021.22 1021.43 1021.68 1022.06 1022.34 1022.80 1023.04 1023.04 1023.44 1023.62 1023.60 1023.87 1024.44 1024.49 1024.56 1024.81 1025.00 1025.22 1025.15 1025.19 1025.21 1025.08 1025.10 1025.08 1025.03 1024.96 1024.95 1024.74 1024.69 1024.51 1024.48
1020.01 1020.07 1020.23 1020.40 1020.57 1020.82 1020.84 1020.83 1020.74 1020.88 1021.13 1021.40 1021.75 1021.92 1022.27 1022.63 1022.99 1023.19 1023.55 1023.86 1023.67 1024.50 1024.72 1024.86 1025.10 1025.32 1025.33 1025.29 1025.35 1025.44 1025.50 1025.56 1025.50 1025.45 1025.49 1025.44 1025.40 1025.30 1025.15 1025.03 1024.89 1024.74 1024.58
1020.37 1020.30 1020.60 1021.00 1021.06 1020.85 1020.86 1021.02 1021.21 1021.23 1021.67 1021.93 1022.38 1022.80 1023.26 1023.19 1023.57 1023.75 1024.31 1024.48 1024.78 1025.31 1025.57 1026.06 1026.10 1026.19 1026.14 1025.98 1025.91 1025.76 1025.82 1025.96 1025.76 1025.77 1025.82 1025.73 1025.68 1025.52 1025.42 1025.31 1025.12 1024.98 1024.78
1020.59 1020.70 1020.87 1020.98 1021.26 1021.02 1021.12 1021.40 1021.47 1021.66 1022.07 1022.24 1023.00 1023.58 1024.07 1024.44 1024.23 1024.78 1025.27 1025.69 1025.69 1026.17 1026.42 1026.77 1026.60 1026.90 1026.91 1026.75 1026.51 1026.36 1026.26 1026.22 1026.25 1026.27 1026.18 1026.14 1025.94 1025.79 1025.70 1025.66 1025.49 1025.40 1025.18
1020.95 1020.80 1021.06 1021.08 1021.39 1021.53 1021.59 1021.56 1021.70 1021.88 1022.44 1022.84 1022.98 1024.27 1024.84 1025.31 1025.80 1025.90 1026.07 1026.46 1026.76 1026.93 1027.14 1027.26 1027.32 1027.43 1027.54 1027.64 1027.45 1027.03 1026.83 1026.74 1026.68 1026.70 1026.61 1026.46 1026.49 1026.39 1026.28 1026.13 1025.94 1025.72 1025.47
1021.16 1021.35 1021.43 1021.64 1021.26 1022.01 1022.03 1021.88 1021.61 1021.70 1022.12 1022.54 1022.46 1023.55 1024.77 1025.84 1026.33 1026.90 1026.97 1027.07 1027.31 1027.53 1027.82 1027.67 1027.88 1027.98 1027.89 1027.89 1027.98 1027.92 1027.67 1027.46 1027.26 1027.22 1026.96 1026.94 1027.01 1026.91 1026.73 1026.52 1026.37 1026.20 1025.88
1021.66 1021.54 1021.79 1021.38 1021.82 1021.82 1021.83 1021.92 1022.01 1021.66 1021.58 1022.27 1022.48 1022.38 1023.59 1024.12 1025.82 1027.04 1027.54 1027.61 1027.86 1028.01 1028.24 1028.31 1028.19 1028.41 1028.46 1028.35 1028.38 1028.66 1028.65 1028.26 1027.86 1027.66 1027.58 1027.56 1027.52 1027.38 1027.18 1026.92 1026.64 1026.42 1026.18
1021.57 1021.73 1021.87 1021.68 1021.48 1021.80 1021.96 1021.90 1021.91 1021.94 1021.83 1021.75 1022.36 1022.61 1022.76 1022.97 1024.04 1026.36 1027.54 1028.04 1027.97 1028.18 1028.54 1028.70 1028.70 1028.71 1028.85 1028.75 1028.99 1029.28 1029.15 1028.83 1028.44 1028.24 1028.23 1028.16 1027.96 1027.70 1027.48 1027.26 1026.97 1026.63 1026.38
1020.41 1021.08 1021.64 1021.50 1021.29 1021.42 1021.51 1021.80 1021.96 1022.09 1021.91 1021.83 1021.86 1022.25 1022.49 1022.94 1023.51 1024.14 1026.01 1027.56 1028.04 1028.14 1028.45 1028.71 1028.73 1028.72 1029.06 1029.11 1029.21 1029.68 1029.59 1029.30 1028.96 1028.87 1028.70 1028.60 1028.49 1028.26 1027.91 1027.55 1027.22 1026.89 1026.41
1020.42 1021.11 1021.48 1021.41 1021.25 1021.44 1021.78 1021.74 1021.77 1022.10 1022.02 1021.88 1021.93 1022.11 1021.84 1021.95 1022.49 1023.53 1024.77 1026.32 1026.93 1027.89 1028.41 1028.77 1028.74 1028.79 1029.04 1029.25 1029.58 1029.96 1029.97 1029.70 1029.45 1029.18 1029.08 1029.02 1028.82 1028.63 1028.32 1027.71 1027.28 1027.01 1026.88
1019.97 1020.58 1020.99 1021.06 1021.19 1021.36 1021.70 1021.95 1022.12 1022.02 1021.96 1021.80 1021.86 1022.10 1022.04 1021.80 1022.06 1022.43 1023.48 1024.96 1025.89 1027.48 1028.17 1028.73 1028.94 1028.96 1029.05 1029.28 1029.52 1029.89 1030.30 1030.27 1030.15 1029.81 1029.80 1029.62 1029.37 1028.88 1028.39 1027.96 1027.56 1027.37 1027.32
1019.67 1020.11 1020.48 1020.76 1021.06 1021.29 1021.64 1021.84 1022.02 1022.30 1022.18 1022.12 1021.91 1022.11 1021.83 1022.10 1022.43 1022.32 1022.45 1023.54 1025.18 1026.36 1027.04 1027.68 1028.74 1029.06 1029.20 1029.37 1029.52 1029.89 1030.21 1030.74 1030.36 1030.29 1030.33 1030.01 1029.84 1029.49 1028.88 1028.39 1027.91 1027.90 1027.60
1019.40 1019.74 1020.10 1020.45 1020.92 1021.46 1021.72 1021.93 1021.67 1021.84 1022.09 1022.18 1022.27 1022.55 1022.22 1022.19 1022.33 1022.54 1022.52 1022.65 1022.59 1024.20 1025.85 1027.28 1027.89 1028.56 1028.92 1029.37 1029.70 1029.79 1030.17 1030.76 1030.68 1030.44 1030.56 1030.34 1030.30 1029.94 1029.30 1028.91 1028.50 1028.45 1028.10
1019.20 1019.44 1019.91 1020.32 1020.71 1021.18 1021.61 1021.90 1022.17 1022.46 1022.59 1022.58 1022.27 1022.36 1022.70 1022.91 1022.93 1022.87 1022.52 1022.41 1022.71 1022.82 1024.41 1026.14 1027.02 1027.85 1028.38 1028.96 1029.80 1029.85 1030.15 1030.61 1031.00 1030.69 1030.77 1030.62 1030.68 1030.42 1029.84 1029.50 1029.17 1028.89 1028.83
1019.14 1019.30 1019.52 1019.92 1020.31 1020.78 1021.23 1021.57 1021.97 1022.44 1022.77 1022.80 1022.86 1022.90 1022.83 1022.98 1022.96 1023.28 1023.32 1023.09 1022.89 1023.01 1023.74 1026.04 1026.96 1027.84 1028.28 1028.61 1029.46 1029.69 1030.09 1030.60 1030.76 1031.17 1031.04 1030.98 1030.88 1030.72 1030.40 1030.11 1029.74 1029.25 1029.20
1018.94 1019.14 1019.36 1019.67 1020.08 1020.40 1020.92 1021.46 1022.00 1022.35 1022.53 1022.65 1022.83 1023.11 1023.36 1023.42 1023.26 1023.56 1023.65 1023.66 1023.59 1023.79 1024.00 1025.22 1026.64 1027.65 1028.26 1028.63 1029.17 1029.45 1029.74 1030.39 1030.88 1031.32 1031.30 1031.10 1031.16 1031.03 1030.52 1030.60 1030.12 1029.92 1029.46
1018.98 1019.18 1019.40 1019.73 1020.10 1020.47 1020.97 1021.61 1022.04 1022.62 1023.00 1023.21 1023.24 1023.26 1023.58 1023.80 1024.00 1023.81 1023.84 1024.09 1024.20 1024.45 1024.62 1025.18 1026.08 1027.32 1028.41 1028.63 1029.24 1029.72 1029.86 1030.64 1031.08 1031.46 1031.48 1031.48 1031.35 1031.41 1031.34 1031.09 1030.46 1030.32 1029.74
1019.06 1019.24 1019.42 1019.70 1020.13 1020.55 1021.09 1021.50 1022.04 1022.67 1023.12 1023.67 1023.79 1023.86 1023.99 1024.24 1024.47 1024.58 1024.59 1024.43 1024.85 1024.94 1025.17 1025.82 1026.63 1027.20 1028.10 1028.78 1029.04 1029.34 1029.65 1030.20 1031.24 1031.34 1031.77 1031.95 1032.06 1031.82 1031.81 1031.56 1030.79 1030.60 1030.56
1019.42 1019.62 1019.63 1019.84 1020.21 1020.66 1021.12 1021.80 1022.35 1022.73 1023.37 1023.80 1024.00 1024.36 1024.44 1025.04 1025.38 1025.62 1025.40 1025.28 1025.30 1025.38 1025.70 1026.00 1026.64 1027.38 1027.69 1028.45 1028.23 1028.55 1029.06 1030.31 1031.35 1031.28 1031.88 1031.89 1032.09 1031.86 1031.90 1031.57 1031.41 1031.30 1031.16
1020.03 1020.14 1020.20 1020.31 1020.62 1021.08 1021.58 1022.01 1022.43 1022.96 1023.61 1024.01 1024.20 1024.78 1025.00 1025.20 1025.53 1025.78 1025.98 1026.00 1025.78 1025.62 1025.69 1025.82 1026.08 1026.53 1027.01 1027.50 1027.76 1028.06 1028.87 1029.61 1030.76 1031.89 1031.67 1032.39 1032.13 1032.38 1031.94 1032.18 1032.32 1031.88 1031.70
1020.45 1020.76 1020.78 1020.87 1021.25 1021.50 1021.83 1022.16 1022.72 1023.22 1023.54 1024.01 1024.28 1024.73 1025.18 1025.60 1025.68 1026.02 1026.57 1026.58 1026.43 1026.27 1026.22 1026.02 1025.66 1026.03 1026.61 1027.16 1027.61 1028.06 1028.82 1029.20 1029.92 1031.51 1031.52 1032.26 1032.64 1032.82 1032.69 1032.78 1032.86 1032.40 1032.24
1020.94 1021.19 1021.23 1021.28 1021.56 1021.84 1022.16 1022.62 1023.13 1023.53 1023.90 1024.34 1024.63 1024.96 1025.44 1025.70 1026.04 1026.15 1026.35 1026.65 1026.88 1026.64 1026.62 1026.67 1026.16 1026.68 1026.60 1027.44 1027.74 1028.05 1028.68 1029.84 1030.94 1031.82 1031.62 1032.18 1033.18 1033.50 1033.56 1033.38 1033.44 1033.00 1032.78
1021.04 1021.30 1021.47 1021.58 1021.79 1022.17 1022.64 1023.09 1023.24 1023.70 1024.27 1024.74 1025.08 1025.42 1025.69 1025.93 1026.24 1026.35 1026.26 1026.72 1026.97 1027.14 1027.21 1027.22 1027.20 1027.23 1027.57 1027.98 1028.44 1028.99 1029.17 1029.58 1030.67 1031.76 1032.53 1032.26 1033.10 1033.75 1034.02 1034.01 1033.90 1033.68 1033.44
1021.20 1021.43 1021.61 1021.78 1021.97 1022.33 1022.82 1023.30 1023.55 1023.87 1024.38 1024.83 1025.32 1025.69 1026.19 1026.19 1026.30 1026.75 1026.76 1027.00 1027.32 1027.76 1028.10 1028.31 1028.15 1028.24 1028.05 1029.06 1029.28 1029.21 1029.16 1029.27 1030.39 1031.54 1032.27 1032.20 1032.92 1033.32 1033.57 1034.08 1033.94 1033.61 1033.52
Wind_Speed
3 3 2 1 1 1 1 1 2 4 4 4 5 8 7 7 8 5 5 9 10 18 19 21 20 19 19 19 17 16 16 16 16 16 17 17 17 17 16 16 16 14 13
3 3 2 1 1 0 1 1 2 4 4 5 6 8 8 8 10 9 9 11 19 18 19 20 20 19 18 18 16 15 16 15 14 15 15 14 14 14 14 15 15 15 15
3 3 2 1 1 2 3 2 3 4 4 5 7 7 8 8 9 9 8 8 12 20 20 21 19 19 18 17 16 15 15 15 15 15 14 14 14 14 13 14 14 15 13
4 3 1 2 3 2 2 3 3 4 4 4 5 5 7 7 10 10 8 9 9 8 14 20 20 18 17 15 15 15 14 14 15 15 15 14 14 15 15 15 14 14 15
5 3 2 2 2 3 3 3 3 3 4 6 6 7 6 6 7 9 12 11 11 10 9 17 18 17 16 15 14 14 14 14 15 15 15 15 15 15 16 17 16 16 16
5 4 3 4 2 2 3 2 3 4 4 6 8 8 7 7 7 8 9 8 11 10 9 8 8 11 16 16 14 13 13 14 15 14 15 15 14 15 16 16 17 17 16
4 3 2 3 2 1 2 4 4 6 4 8 7 6 7 9 9 8 7 8 9 9 9 8 6 5 8 16 14 13 14 13 15 14 15 16 18 17 16 17 17 17 17
5 3 2 1 3 2 3 4 5 4 3 6 4 5 3 3 6 6 6 7 8 6 7 8 8 8 7 7 12 15 14 14 13 14 14 16 16 15 16 17 18 17 18
2 1 2 1 2 3 3 4 4 5 5 7 6 3 4 4 4 3 6 5 6 6 6 6 8 8 8 7 8 12 12 12 12 13 15 14 15 15 16 17 17 17 18
1 2 3 3 3 2 3 3 3 4 4 8 4 3 2 4 5 4 3 3 5 6 5 5 6 8 7 7 13 13 12 11 11 13 14 14 13 15 15 16 17 18 18
4 5 4 3 3 3 4 4 3 5 6 4 7 5 4 3 4 4 5 5 3 4 5 4 5 6 7 6 7 10 11 11 12 12 13 13 14 15 16 17 18 19 18
3 4 4 3 2 2 3 3 4 5 5 5 5 6 6 5 7 4 3 6 7 5 4 4 5 5 6 6 10 12 11 11 12 13 14 14 15 16 17 19 20 20 20
4 6 6 5 4 4 3 2 3 3 4 5 6 6 5 5 2 5 4 5 5 4 4 3 4 5 6 6 8 12 12 12 12 13 13 14 14 16 17 19 19 19 19
4 5 6 5 5 4 4 4 2 2 2 3 5 6 5 4 4 5 5 8 5 4 6 7 5 5 6 6 11 14 11 11 12 13 13 14 15 16 17 18 19 18 20
4 5 5 6 6 5 4 4 3 4 4 2 2 3 3 3 4 5 6 8 5 8 9 9 5 8 7 7 10 9 10 12 11 13 13 14 15 16 17 17 18 17 19
5 5 6 6 6 5 5 4 2 1 1 0 2 4 1 1 2 3 5 7 5 5 6 5 5 11 10 9 10 10 11 13 12 13 13 14 15 15 16 17 17 18 18
4 5 5 6 7 7 6 5 5 4 4 3 2 2 3 2 1 1 2 3 3 3 7 5 5 10 12 11 10 9 9 7 8 12 13 13 14 13 16 17 16 17 17
4 5 5 5 6 7 7 7 6 4 5 5 4 4 3 2 4 3 2 0 1 1 3 12 11 10 11 11 11 11 8 6 8 12 13 13 14 14 16 16 16 15 17
3 3 4 5 7 7 7 6 6 5 5 5 4 4 4 2 1 2 3 2 3 2 5 7 10 9 9 9 10 9 8 8 6 14 13 13 14 14 15 16 16 16 18
3 3 4 5 5 6 7 8 8 8 7 5 5 4 4 3 2 1 2 4 4 3 4 6 8 10 10 11 9 9 9 7 6 7 11 10 10 14 13 13 18 17 16
4 4 4 5 6 7 6 9 9 8 8 7 6 5 5 6 7 5 2 3 3 3 4 7 8 9 9 11 11 8 9 8 6 5 6 5 4 5 6 11 13 16 15
1 2 4 5 6 4 12 14 11 8 7 7 7 6 7 8 9 9 7 4 3 7 8 7 8 10 11 10 8 9 9 9 7 3 6 5 4 5 6 7 12 15 15
3 3 4 6 6 8 14 14 13 7 8 7 8 6 6 5 7 8 9 9 10 9 3 5 7 7 9 10 10 11 10 9 5 8 8 6 4 5 5 6 10 12 14
3 3 4 5 6 4 12 14 13 9 7 7 6 6 5 5 4 5 5 6 5 6 5 2 2 6 5 9 9 8 10 9 8 6 2 6 3 5 4 5 10 11 12
4 3 3 5 6 7 13 14 11 8 8 7 6 6 5 4 6 6 7 8 8 9 11 10 11 11 12 10 9 9 9 9 6 4 1 5 5 5 4 4 5 10 11
4 4 5 4 7 7 12 12 9 6 8 6 6 7 6 4 7 7 7 7 8 6 5 7 9 11 10 8 8 1 7 8 6 4 4 4 7 5 4 3 3 4 4
Wind_Direction
147 142 120 107 85 79 119 135 90 91 104 97 122 131 111 94 94 79 81 39 104 114 112 108 102 94 84 78 76 79 73 70 69 68 65 60 56 54 51 49 49 45 44
128 135 135 132 143 50 14 78 83 101 103 101 92 105 102 94 88 78 73 61 61 74 87 93 91 90 85 83 73 68 67 63 63 63 58 52 50 47 41 38 36 37 32
132 128 139 147 95 72 97 97 82 90 110 103 96 93 89 86 84 78 77 81 69 62 71 81 77 79 81 81 77 74 70 66 62 63 57 55 51 48 43 40 35 30 21
49 72 85 98 98 96 91 96 97 102 97 103 108 99 96 91 91 88 87 84 88 77 67 74 75 74 72 74 77 74 72 69 67 61 59 57 56 54 48 44 36 28 21
57 75 69 76 97 110 105 112 94 80 113 107 98 88 74 82 89 96 89 86 80 88 87 81 80 77 73 69 70 71 73 68 67 64 62 57 53 51 46 40 36 31 25
60 69 93 112 102 111 118 110 115 84 117 115 98 76 60 52 81 86 89 89 90 92 94 94 90 76 70 63 59 64 71 70 67 61 56 51 51 49 46 41 34 27 21
67 87 103 114 110 147 140 141 121 128 127 135 113 84 61 57 54 64 85 93 88 88 96 91 91 89 77 65 56 57 60 62 61 57 52 53 45 40 36 31 24 15 8
24 21 27 179 89 198 197 187 171 151 139 174 155 127 145 108 62 47 81 87 92 92 86 87 84 79 80 75 68 58 51 56 59 59 63 59 49 42 37 29 24 16 10
268 242 244 115 203 211 204 196 203 192 173 185 209 181 161 178 131 70 58 84 95 96 94 90 92 86 83 86 85 72 59 53 55 59 55 52 47 44 39 33 27 20 12
241 289 240 194 179 189 224 215 202 219 208 198 187 210 343 130 170 154 115 96 112 107 99 96 96 92 82 77 78 69 63 59 59 63 60 54 51 48 42 35 27 21 13
167 201 222 216 198 200 201 215 206 218 218 232 225 181 177 159 159 146 158 164 128 128 119 121 115 110 98 95 89 79 75 68 67 64 61 57 51 47 44 39 31 23 17
184 236 232 239 210 218 229 217 210 223 229 232 231 225 199 184 178 165 133 161 166 156 142 134 128 126 120 109 97 93 84 82 77 71 64 59 51 48 42 40 35 28 20
196 211 206 200 209 211 201 237 241 228 221 218 226 241 241 234 190 170 145 152 164 155 161 155 141 140 131 126 115 108 92 85 81 73 65 60 54 52 47 43 41 35 26
213 195 204 207 210 201 194 196 211 254 258 263 233 222 229 235 225 209 168 159 158 171 173 153 165 158 150 140 127 120 106 88 81 75 67 64 56 51 49 47 45 36 34
215 209 209 209 205 212 223 226 211 192 202 190 215 263 252 215 217 218 213 201 177 178 191 180 158 173 159 145 140 132 117 105 90 84 69 60 57 54 51 49 47 45 39
216 204 207 207 199 194 197 201 219 258 249 124 159 160 163 347 304 269 225 204 211 179 157 166 176 166 162 150 147 143 127 115 98 84 77 68 61 54 53 51 50 48 39
240 227 214 204 200 193 190 190 185 175 183 152 112 110 108 106 78 335 275 228 201 180 139 128 145 159 156 155 151 137 134 137 107 93 79 73 68 55 56 49 49 50 47
283 264 232 223 208 195 189 184 176 171 169 160 133 122 104 107 107 72 31 352 222 56 133 146 152 158 167 160 154 145 141 127 116 97 80 69 71 56 59 49 50 50 50
296 261 239 232 214 200 183 173 163 126 132 123 126 145 126 139 118 94 79 10 29 60 130 150 149 158 161 156 152 146 138 111 121 104 87 70 65 62 52 48 53 52 51
284 262 242 237 221 186 168 151 139 126 122 110 95 101 95 84 57 33 53 72 56 79 112 140 155 162 161 169 170 158 143 145 125 105 77 76 73 66 58 53 49 58 52
308 279 226 198 180 167 160 149 139 129 137 130 126 117 93 89 87 61 12 92 98 125 156 161 160 164 166 178 178 163 154 144 131 132 128 109 87 73 61 67 57 52 60
25 196 189 169 158 137 131 130 132 130 145 147 132 125 113 105 97 93 85 59 223 214 190 186 177 187 176 180 165 164 155 159 149 191 148 113 112 83 56 55 51 46 56
103 138 142 135 131 134 142 136 134 141 150 151 147 146 129 111 110 106 84 78 66 69 29 217 183 186 171 176 173 166 173 173 145 149 148 112 119 90 58 65 49 52 47
128 146 133 123 127 134 141 136 136 138 139 137 138 137 143 137 124 126 115 96 80 69 55 55 166 157 147 169 176 177 163 123 115 127 201 129 136 90 68 59 44 53 49
123 108 115 122 126 135 145 149 141 139 132 129 127 127 141 150 155 153 137 130 114 91 66 69 98 106 123 131 147 148 156 155 136 152 129 133 149 121 85 68 68 51 49
115 134 121 118 142 144 158 157 144 140 144 139 133 123 127 139 145 157 150 145 127 105 98 102 86 78 83 109 112 183 160 154 135 153 153 153 161 169 147 79 71 69 85